This demonstration page uses our WeatherBlox Daily Observations layout. Learn more.

Left ArrowRight Arrow

34.16533, -84.80231

Hourly Observations for February 5, 2015

Temp ( °F °C ) Dew Point ( °F °C ) Humidity (%) Winds ( mph kmh ) Pressure ( in mb ) Visibility ( mi km ) Precip ( " mm )
12:53 am 00:53 Clear 32 0 27 -2.8 82 82 Calm 30.08 1019 10 16 0.00 0.00
1:53 am 01:53 Mostly Cloudy 32 0 27 -2.8 82 82 Calm 30.08 1019 10 16 0.00 0.00
2:53 am 02:53 Partly Cloudy 34 1.1 29 -1.7 82 82 Calm 30.06 1018 9 14 0.00 0.00
3:53 am 03:53 Mostly Cloudy 34 1.1 29 -1.7 82 82 Calm 30.05 1018 9 14 0.00 0.00
4:53 am 04:53 Cloudy 36 2.2 28 -2.2 73 73 Calm 30.05 1018 10 16 0.00 0.00
5:53 am 05:53 Cloudy 38 3.3 29 -1.7 70 70 VRB 3 6 30.06 1018 10 16 0.00 0.00
6:53 am 06:53 Cloudy 43 6.1 28 -2.2 56 56 NNW 8 13 30.08 1019 10 16 0.00 0.00
7:53 am 07:53 Cloudy 42 5.6 30 -1.1 62 62 NNW 7 11 30.12 1020 10 16 0.00 0.00
8:28 am 08:28 Mostly Cloudy 43 6.1 31 -0.6 63 63 NNW 9 15 30.12 1020 10 16 0.00 0.00
8:53 am 08:53 Mostly Cloudy 42 5.6 31 -0.6 65 65 NNW 8 13 30.14 1021 10 16 0.00 0.00
9:53 am 09:53 Cloudy 41 5 29 -1.7 62 62 N 13 20 30.16 1021 10 16 0.00 0.00
10:53 am 10:53 Sunny 43 6.1 28 -2.2 56 56 N 12 19 30.20 1023 10 16 0.00 0.00
11:53 am 11:53 Sunny 42 5.6 24 -4.4 49 49 N 13 20 30.22 1023 10 16 0.00 0.00
12:53 pm 12:53 Sunny 44 6.7 21 -6.1 40 40 N 12 19 30.20 1023 10 16 0.00 0.00
1:53 pm 13:53 Sunny 45 7.2 18 -7.8 34 34 N 14 22 30.20 1023 10 16 0.00 0.00
2:53 pm 14:53 Sunny 46 7.8 17 -8.3 31 31 N 12 19 30.19 1023 10 16 0.00 0.00
3:53 pm 15:53 Sunny 45 7.2 14 -10 29 29 NNW 9 15 30.20 1023 10 16 0.00 0.00
4:53 pm 16:53 Sunny 43 6.1 11 -11.7 27 27 NNW 10 17 30.22 1023 10 16 0.00 0.00
5:53 pm 17:53 Sunny 40 4.4 10 -12.2 29 29 NNW 8 13 30.25 1024 10 16 0.00 0.00
6:53 pm 18:53 Clear 37 2.8 10 -12.2 33 33 VRB 6 9 30.27 1025 10 16 0.00 0.00
7:53 pm 19:53 Clear 35 1.7 10 -12.2 35 35 Calm 30.28 1026 10 16 0.00 0.00
8:53 pm 20:53 Clear 34 1.1 10 -12.2 37 37 VRB 5 7 30.30 1026 10 16 0.00 0.00
9:53 pm 21:53 Clear 33 0.6 9 -12.8 36 36 NNW 3 6 30.32 1027 10 16 0.00 0.00
10:53 pm 22:53 Clear 31 -0.6 9 -12.8 40 40 VRB 5 7 30.32 1027 10 16 0.00 0.00
11:53 pm 23:53 Clear 29 -1.7 8 -13.3 41 41 Calm 30.34 1028 10 16 0.00 0.00

Powered by AerisWeather